| time (UTC) | temp C | wind direction | speed KPH | gust KPH | rain 1hr cm | rain 24hr cm | rain mn cm | humidity % | barometer mb |
| 20260509135508 | 23 | 360 | 1.6 | 6.4 | 0.00 | 0.00 | 0.00 | 80 | 1008.9 |
| 20260509135006 | 23 | 140 | 1.6 | 6.4 | 0.00 | 0.00 | 0.00 | 81 | 1008.9 |
| 20260509134509 | 23 | 135 | 1.6 | 6.4 | 0.00 | 0.00 | 0.00 | 82 | 1008.8 |
| 20260509134005 | 23 | 360 | 1.6 | 6.4 | 0.00 | 0.00 | 0.00 | 84 | 1008.7 |
| 20260509133501 | 23 | 360 | 0.0 | 4.8 | 0.00 | 0.00 | 0.00 | 86 | 1008.7 |
| 20260509133101 | 23 | 131 | 0.0 | 6.4 | 0.00 | 0.00 | 0.00 | 86 | 1008.6 |
| 20260509132600 | 22 | 123 | 3.2 | 6.4 | 0.00 | 0.00 | 0.00 | 87 | 1008.6 |
| 20260509132058 | 22 | 113 | 1.6 | 6.4 | 0.00 | 0.00 | 0.00 | 88 | 1008.6 |
| 20260509131556 | 22 | 115 | 3.2 | 6.4 | 0.00 | 0.00 | 0.00 | 88 | 1008.7 |
| 20260509131055 | 22 | 105 | 3.2 | 6.4 | 0.00 | 0.00 | 0.00 | 89 | 1008.5 |
| 20260509130554 | 22 | 94 | 1.6 | 4.8 | 0.00 | 0.00 | 0.00 | 90 | 1008.5 |
| 20260509130050 | 21 | 71 | 1.6 | 4.8 | 0.00 | 0.00 | 0.00 | 89 | 1008.5 |
| 20260509125552 | 21 | 86 | 1.6 | 4.8 | 0.00 | 0.00 | 0.00 | 90 | 1008.4 |
| 20260509125047 | 21 | 355 | 0.0 | 6.4 | 0.00 | 0.00 | 0.00 | 90 | 1008.4 |
| 20260509124546 | 21 | 355 | 3.2 | 6.4 | 0.00 | 0.00 | 0.00 | 90 | 1008.3 |
| 20260509124046 | 21 | 311 | 1.6 | 4.8 | 0.00 | 0.00 | 0.00 | 90 | 1008.3 |
| 20260509123546 | 21 | 313 | 1.6 | 4.8 | 0.00 | 0.00 | 0.00 | 90 | 1008.3 |
| 20260509123043 | 21 | 313 | 0.0 | 3.2 | 0.00 | 0.00 | 0.00 | 90 | 1008.4 |
| 20260509122543 | 21 | 312 | 0.0 | 3.2 | 0.00 | 0.00 | 0.00 | 90 | 1008.5 |
| 20260509122043 | 21 | 314 | 0.0 | 3.2 | 0.00 | 0.00 | 0.00 | 90 | 1008.7 |
| 20260509121548 | 21 | 310 | 0.0 | 3.2 | 0.00 | 0.00 | 0.00 | 90 | 1008.4 |
| 20260509121048 | 21 | 310 | 0.0 | 3.2 | 0.00 | 0.00 | 0.00 | 90 | 1008.6 |
| 20260509120543 | 21 | 313 | 0.0 | 4.8 | 0.00 | 0.00 | 0.00 | 90 | 1009.0 |
| 20260509120012 | 21 | 313 | 0.0 | 6.4 | 0.00 | 0.00 | 0.00 | 90 | 1008.7 |
| 20260509115511 | 21 | 302 | 0.0 | 8.0 | 0.00 | 0.00 | 0.00 | 90 | 1009.0 |
| 20260509115012 | 21 | 309 | 1.6 | 8.0 | 0.00 | 0.00 | 0.00 | 90 | 1008.9 |
| 20260509114522 | 21 | 294 | 1.6 | 16.1 | 0.00 | 0.00 | 0.00 | 90 | 1009.1 |
| 20260509114012 | 21 | 360 | 4.8 | 16.1 | 0.00 | 0.00 | 0.00 | 90 | 1009.3 |
| 20260509113512 | 21 | 15 | 4.8 | 14.5 | 0.00 | 0.00 | 0.00 | 90 | 1009.1 |
| 20260509113009 | 21 | 302 | 1.6 | 19.3 | 0.00 | 0.00 | 0.00 | 91 | 1008.8 |
| 20260509112509 | 21 | 355 | 9.7 | 19.3 | 0.00 | 0.00 | 0.00 | 90 | 1008.7 |
| 20260509112011 | 21 | 325 | 3.2 | 19.3 | 0.00 | 0.00 | 0.00 | 91 | 1008.5 |
| 20260509111508 | 21 | 234 | 11.3 | 19.3 | 0.00 | 0.00 | 0.00 | 91 | 1007.6 |
| 20260509111009 | 21 | 227 | 9.7 | 17.7 | 0.00 | 0.00 | 0.00 | 91 | 1007.4 |
| 20260509110509 | 21 | 207 | 11.3 | 17.7 | 0.00 | 0.00 | 0.00 | 91 | 1007.1 |
| 20260509110008 | 21 | 200 | 9.7 | 17.7 | 0.00 | 0.00 | 0.00 | 90 | 1006.7 |
| 20260509105511 | 21 | 198 | 12.9 | 22.5 | 0.00 | 0.00 | 0.00 | 90 | 1006.8 |
| 20260509105007 | 21 | 192 | 12.9 | 24.1 | 0.00 | 0.00 | 0.00 | 91 | 1006.8 |
| 20260509104507 | 21 | 207 | 14.5 | 25.7 | 0.00 | 0.00 | 0.00 | 91 | 1006.8 |
| 20260509104007 | 21 | 207 | 12.9 | 20.9 | 0.00 | 0.00 | 0.00 | 91 | 1006.9 |
| 20260509103508 | 21 | 205 | 12.9 | 20.9 | 0.00 | 0.00 | 0.00 | 91 | 1006.6 |
| 20260509103106 | 21 | 205 | 11.3 | 20.9 | 0.00 | 0.00 | 0.00 | 91 | 1006.4 |
| 20260509102536 | 21 | 202 | 12.9 | 22.5 | 0.00 | 0.00 | 0.00 | 91 | 1006.3 |
| 20260509102036 | 20 | 200 | 12.9 | 24.1 | 0.00 | 0.00 | 0.00 | 91 | 1006.1 |
| 20260509101547 | 20 | 196 | 14.5 | 25.7 | 0.00 | 0.00 | 0.00 | 91 | 1006.1 |
| 20260509101035 | 20 | 217 | 16.1 | 27.4 | 0.00 | 0.00 | 0.00 | 90 | 1006.0 |
| 20260509100535 | 20 | 175 | 12.9 | 24.1 | 0.00 | 0.00 | 0.00 | 90 | 1006.0 |
| 20260509100034 | 20 | 194 | 14.5 | 20.9 | 0.00 | 0.00 | 0.00 | 90 | 1006.2 |
| 20260509095531 | 20 | 191 | 12.9 | 19.3 | 0.00 | 0.00 | 0.00 | 90 | 1006.6 |
| 20260509095031 | 20 | 186 | 9.7 | 14.5 | 0.00 | 0.00 | 0.00 | 90 | 1006.6 |
| 20260509094533 | 20 | 182 | 9.7 | 16.1 | 0.00 | 0.00 | 0.00 | 90 | 1006.6 |
| 20260509094029 | 20 | 202 | 11.3 | 16.1 | 0.00 | 0.00 | 0.00 | 90 | 1006.7 |
| 20260509093529 | 20 | 194 | 9.7 | 16.1 | 0.00 | 0.00 | 0.00 | 90 | 1006.8 |
| 20260509093028 | 20 | 179 | 9.7 | 19.3 | 0.00 | 0.00 | 0.00 | 90 | 1006.9 |
| 20260509092529 | 20 | 210 | 9.7 | 19.3 | 0.00 | 0.00 | 0.00 | 90 | 1007.2 |
| 20260509092028 | 20 | 172 | 8.0 | 14.5 | 0.00 | 0.00 | 0.00 | 90 | 1007.3 |
| 20260509091527 | 20 | 196 | 8.0 | 14.5 | 0.00 | 0.00 | 0.00 | 90 | 1007.5 |
| 20260509091027 | 20 | 175 | 8.0 | 14.5 | 0.00 | 0.00 | 0.00 | 90 | 1007.4 |
| 20260509090528 | 20 | 180 | 6.4 | 12.9 | 0.00 | 0.00 | 0.00 | 90 | 1007.8 |
| 20260509090027 | 20 | 198 | 8.0 | 12.9 | 0.00 | 0.00 | 0.00 | 90 | 1008.2 |
| 20260509085555 | 20 | 186 | 6.4 | 12.9 | 0.00 | 0.00 | 0.00 | 89 | 1008.3 |
| 20260509085055 | 20 | 177 | 6.4 | 12.9 | 0.00 | 0.00 | 0.00 | 90 | 1008.5 |
| 20260509084556 | 20 | 171 | 8.0 | 11.3 | 0.00 | 0.00 | 0.00 | 89 | 1008.5 |
| 20260509084058 | 20 | 221 | 4.8 | 8.0 | 0.00 | 0.00 | 0.00 | 90 | 1008.8 |
| 20260509083555 | 20 | 234 | 3.2 | 4.8 | 0.00 | 0.00 | 0.00 | 89 | 1009.0 |
| 20260509083055 | 20 | 234 | 0.0 | 4.8 | 0.00 | 0.00 | 0.00 | 89 | 1009.1 |
| 20260509082554 | 20 | 234 | 1.6 | 4.8 | 0.00 | 0.00 | 0.00 | 90 | 1008.9 |
| 20260509082054 | 20 | 263 | 0.0 | 0.0 | 0.00 | 0.00 | 0.00 | 90 | 1009.0 |
| 20260509081553 | 20 | 263 | 0.0 | 0.0 | 0.00 | 0.00 | 0.00 | 90 | 1009.4 |
| 20260509081052 | 20 | 263 | 0.0 | 4.8 | 0.00 | 0.00 | 0.00 | 90 | 1009.4 |
| 20260509080552 | 20 | 262 | 0.0 | 4.8 | 0.00 | 0.00 | 0.00 | 90 | 1009.5 |
| 20260509080052 | 20 | 243 | 0.0 | 3.2 | 0.00 | 0.00 | 0.00 | 90 | 1009.8 |
| 20260509075551 | 20 | 243 | 0.0 | 3.2 | 0.00 | 0.00 | 0.00 | 89 | 1010.1 |
| 20260509075052 | 20 | 242 | 0.0 | 3.2 | 0.00 | 0.00 | 0.00 | 89 | 1010.2 |
| 20260509074602 | 20 | 242 | 0.0 | 4.8 | 0.00 | 0.00 | 0.00 | 89 | 1010.3 |
| 20260509074051 | 20 | 242 | 0.0 | 4.8 | 0.00 | 0.00 | 0.00 | 90 | 1010.4 |
| 20260509073551 | 20 | 242 | 3.2 | 6.4 | 0.00 | 0.00 | 0.00 | 89 | 1010.1 |
| 20260509073053 | 20 | 257 | 3.2 | 6.4 | 0.00 | 0.00 | 0.00 | 89 | 1010.1 |
| 20260509072551 | 20 | 288 | 1.6 | 4.8 | 0.00 | 0.00 | 0.00 | 89 | 1010.1 |
| 20260509072048 | 20 | 288 | 0.0 | 4.8 | 0.00 | 0.00 | 0.00 | 89 | 1010.1 |
| 20260509071557 | 20 | 288 | 0.0 | 4.8 | 0.00 | 0.00 | 0.00 | 89 | 1009.9 |
| 20260509071048 | 20 | 287 | 1.6 | 4.8 | 0.00 | 0.00 | 0.00 | 89 | 1010.0 |
| 20260509070548 | 20 | 159 | 0.0 | 0.0 | 0.00 | 0.00 | 0.00 | 89 | 1010.0 |
| 20260509070049 | 20 | 161 | 0.0 | 0.0 | 0.00 | 0.00 | 0.00 | 88 | 1009.6 |
| 20260509065550 | 20 | 160 | 0.0 | 0.0 | 0.00 | 0.00 | 0.00 | 88 | 1009.7 |
| 20260509065048 | 20 | 157 | 0.0 | 0.0 | 0.00 | 0.00 | 0.00 | 88 | 1009.6 |
| 20260509064558 | 20 | 159 | 0.0 | 0.0 | 0.00 | 0.00 | 0.00 | 88 | 1009.4 |
| 20260509064046 | 20 | 160 | 0.0 | 0.0 | 0.00 | 0.00 | 0.00 | 88 | 1009.4 |
| 20260509063547 | 20 | 159 | 0.0 | 0.0 | 0.00 | 0.00 | 0.00 | 88 | 1009.3 |
| 20260509063048 | 20 | 159 | 0.0 | 0.0 | 0.00 | 0.00 | 0.00 | 88 | 1009.0 |
| 20260509062544 | 20 | 159 | 0.0 | 0.0 | 0.00 | 0.00 | 0.00 | 88 | 1008.9 |
| 20260509062045 | 20 | 160 | 0.0 | 0.0 | 0.00 | 0.00 | 0.00 | 88 | 1009.0 |
| 20260509061545 | 20 | 160 | 0.0 | 0.0 | 0.00 | 0.00 | 0.00 | 88 | 1008.9 |
| 20260509061043 | 20 | 159 | 0.0 | 0.0 | 0.00 | 0.00 | 0.00 | 88 | 1008.9 |
| 20260509060544 | 20 | 159 | 0.0 | 0.0 | 0.00 | 0.00 | 0.00 | 88 | 1009.0 |
| 20260509060044 | 20 | 159 | 0.0 | 0.0 | 0.00 | 0.00 | 0.00 | 88 | 1009.1 |
| 20260509055544 | 20 | 159 | 0.0 | 0.0 | 0.00 | 0.00 | 0.00 | 87 | 1008.9 |
| 20260509055044 | 20 | 159 | 0.0 | 0.0 | 0.00 | 0.00 | 0.00 | 87 | 1008.8 |
| 20260509054543 | 21 | 155 | 0.0 | 0.0 | 0.00 | 0.00 | 0.00 | 87 | 1008.8 |
| 20260509054042 | 21 | 155 | 0.0 | 8.0 | 0.00 | 0.00 | 0.00 | 87 | 1009.1 |
| 20260509053542 | 21 | 156 | 3.2 | 8.0 | 0.00 | 0.00 | 0.00 | 87 | 1009.1 |
| 20260509053042 | 21 | 360 | 0.0 | 3.2 | 0.00 | 0.00 | 0.00 | 87 | 1009.2 |
| 20260509052543 | 21 | 161 | 0.0 | 0.0 | 0.00 | 0.00 | 0.00 | 87 | 1009.4 |
| 20260509052011 | 21 | 161 | 0.0 | 0.0 | 0.00 | 0.00 | 0.00 | 87 | 1009.4 |
| 20260509051515 | 21 | 162 | 0.0 | 1.6 | 0.00 | 0.00 | 0.00 | 87 | 1009.5 |
| 20260509051012 | 21 | 163 | 0.0 | 1.6 | 0.00 | 0.00 | 0.00 | 87 | 1009.6 |
| 20260509050515 | 21 | 162 | 0.0 | 3.2 | 0.00 | 0.00 | 0.00 | 87 | 1009.6 |
| 20260509050012 | 21 | 162 | 0.0 | 3.2 | 0.00 | 0.00 | 0.00 | 87 | 1009.4 |
| 20260509045510 | 21 | 162 | 0.0 | 0.0 | 0.00 | 0.00 | 0.00 | 87 | 1009.5 |
| 20260509045006 | 21 | 161 | 0.0 | 0.0 | 0.00 | 0.00 | 0.00 | 87 | 1009.5 |
| 20260509044506 | 21 | 161 | 0.0 | 0.0 | 0.00 | 0.00 | 0.00 | 87 | 1009.4 |
| 20260509044006 | 21 | 162 | 0.0 | 0.0 | 0.00 | 0.00 | 0.00 | 86 | 1009.4 |
| 20260509043508 | 21 | 161 | 0.0 | 0.0 | 0.00 | 0.00 | 0.00 | 86 | 1009.3 |
| 20260509043009 | 21 | 163 | 0.0 | 0.0 | 0.00 | 0.00 | 0.00 | 86 | 1009.4 |
| 20260509042506 | 21 | 162 | 0.0 | 0.0 | 0.00 | 0.00 | 0.00 | 86 | 1009.2 |
| 20260509042005 | 21 | 162 | 0.0 | 0.0 | 0.00 | 0.00 | 0.00 | 86 | 1009.2 |
| 20260509041505 | 21 | 175 | 0.0 | 0.0 | 0.00 | 0.00 | 0.00 | 85 | 1009.0 |
| 20260509041005 | 21 | 165 | 0.0 | 0.0 | 0.00 | 0.00 | 0.00 | 85 | 1009.0 |
| 20260509040505 | 21 | 164 | 0.0 | 1.6 | 0.00 | 0.00 | 0.00 | 85 | 1009.0 |
| 20260509040004 | 21 | 169 | 0.0 | 1.6 | 0.00 | 0.00 | 0.00 | 85 | 1009.0 |
| 20260509035508 | 21 | 157 | 0.0 | 3.2 | 0.00 | 0.00 | 0.00 | 85 | 1008.8 |
| 20260509035034 | 21 | 155 | 0.0 | 3.2 | 0.00 | 0.00 | 0.00 | 84 | 1008.6 |
| 20260509034546 | 22 | 154 | 0.0 | 0.0 | 0.00 | 0.00 | 0.00 | 84 | 1008.7 |
| 20260509034033 | 22 | 153 | 0.0 | 1.6 | 0.00 | 0.00 | 0.00 | 84 | 1008.7 |
| 20260509033533 | 22 | 153 | 0.0 | 1.6 | 0.00 | 0.00 | 0.00 | 84 | 1008.8 |
| 20260509033034 | 22 | 153 | 0.0 | 0.0 | 0.00 | 0.00 | 0.00 | 84 | 1008.8 |
| 20260509032534 | 22 | 153 | 0.0 | 0.0 | 0.00 | 0.00 | 0.00 | 84 | 1008.9 |
| 20260509032027 | 22 | 153 | 0.0 | 0.0 | 0.00 | 0.00 | 0.00 | 84 | 1008.8 |
| 20260509031529 | 22 | 153 | 0.0 | 0.0 | 0.00 | 0.00 | 0.00 | 83 | 1008.7 |
| 20260509031027 | 22 | 153 | 0.0 | 1.6 | 0.00 | 0.00 | 0.00 | 83 | 1008.7 |
| 20260509030527 | 22 | 153 | 0.0 | 1.6 | 0.00 | 0.00 | 0.00 | 83 | 1008.6 |
| 20260509030027 | 22 | 153 | 0.0 | 0.0 | 0.00 | 0.00 | 0.00 | 83 | 1008.6 |
| 20260509025527 | 22 | 153 | 0.0 | 0.0 | 0.00 | 0.00 | 0.00 | 83 | 1008.4 |
| 20260509025014 | 22 | 153 | 0.0 | 1.6 | 0.00 | 0.00 | 0.00 | 83 | 1008.3 |
| 20260509024514 | 22 | 153 | 0.0 | 1.6 | 0.00 | 0.00 | 0.00 | 83 | 1008.4 |
| 20260509024015 | 22 | 153 | 0.0 | 0.0 | 0.00 | 0.00 | 0.00 | 83 | 1008.2 |
| 20260509023513 | 22 | 154 | 0.0 | 0.0 | 0.00 | 0.00 | 0.00 | 82 | 1008.1 |
| 20260509023014 | 22 | 154 | 0.0 | 0.0 | 0.00 | 0.00 | 0.00 | 82 | 1008.1 |
| 20260509022514 | 22 | 154 | 0.0 | 0.0 | 0.00 | 0.00 | 0.00 | 82 | 1008.1 |
| 20260509022012 | 22 | 154 | 0.0 | 0.0 | 0.00 | 0.00 | 0.00 | 82 | 1008.3 |
| 20260509021512 | 22 | 154 | 0.0 | 1.6 | 0.00 | 0.00 | 0.00 | 82 | 1008.1 |
| 20260509021013 | 22 | 154 | 0.0 | 1.6 | 0.00 | 0.00 | 0.00 | 82 | 1008.0 |
| 20260509020514 | 22 | 154 | 0.0 | 1.6 | 0.00 | 0.00 | 0.00 | 82 | 1008.0 |
| 20260509020011 | 22 | 154 | 0.0 | 1.6 | 0.00 | 0.00 | 0.00 | 82 | 1008.0 |
| 20260509015511 | 22 | 154 | 0.0 | 1.6 | 0.00 | 0.00 | 0.00 | 81 | 1007.8 |
| 20260509015010 | 22 | 154 | 0.0 | 4.8 | 0.00 | 0.00 | 0.00 | 81 | 1007.8 |
| 20260509014509 | 22 | 154 | 0.0 | 6.4 | 0.00 | 0.00 | 0.00 | 81 | 1007.8 |
| 20260509014010 | 23 | 157 | 0.0 | 6.4 | 0.00 | 0.00 | 0.00 | 81 | 1007.7 |
| 20260509013512 | 23 | 139 | 1.6 | 6.4 | 0.00 | 0.00 | 0.00 | 81 | 1007.7 |
| 20260509013010 | 23 | 179 | 1.6 | 8.0 | 0.00 | 0.00 | 0.00 | 81 | 1007.7 |
| 20260509012509 | 23 | 162 | 4.8 | 8.0 | 0.00 | 0.00 | 0.00 | 80 | 1007.6 |
| 20260509012009 | 23 | 191 | 1.6 | 8.0 | 0.00 | 0.00 | 0.00 | 80 | 1007.6 |
| 20260509011506 | 23 | 182 | 3.2 | 8.0 | 0.00 | 0.00 | 0.00 | 80 | 1007.5 |
| 20260509011008 | 23 | 192 | 1.6 | 9.7 | 0.00 | 0.00 | 0.00 | 80 | 1007.1 |
| 20260509010506 | 23 | 186 | 4.8 | 9.7 | 0.00 | 0.00 | 0.00 | 80 | 1007.0 |
| 20260509010006 | 23 | 184 | 3.2 | 8.0 | 0.00 | 0.00 | 0.00 | 79 | 1007.0 |
| 20260509005506 | 23 | 142 | 0.0 | 4.8 | 0.00 | 0.00 | 0.00 | 79 | 1007.1 |
| 20260509005007 | 23 | 134 | 0.0 | 1.6 | 0.00 | 0.00 | 0.00 | 79 | 1007.1 |
| 20260509004505 | 23 | 135 | 0.0 | 6.4 | 0.00 | 0.00 | 0.00 | 78 | 1007.1 |
| 20260509004008 | 23 | 153 | 0.0 | 4.8 | 0.00 | 0.00 | 0.00 | 78 | 1007.1 |
| 20260509003505 | 23 | 175 | 0.0 | 4.8 | 0.00 | 0.00 | 0.00 | 78 | 1007.0 |
| 20260509003005 | 23 | 175 | 0.0 | 6.4 | 0.00 | 0.00 | 0.00 | 78 | 1007.1 |
| 20260509002503 | 23 | 177 | 0.0 | 8.0 | 0.00 | 0.00 | 0.00 | 78 | 1007.0 |
| 20260509002002 | 23 | 173 | 1.6 | 8.0 | 0.00 | 0.00 | 0.00 | 77 | 1007.1 |
| 20260509001535 | 23 | 159 | 1.6 | 8.0 | 0.00 | 0.00 | 0.00 | 77 | 1007.3 |
| 20260509001031 | 23 | 147 | 0.0 | 11.3 | 0.00 | 0.00 | 0.00 | 77 | 1007.3 |
| 20260509000529 | 23 | 180 | 0.0 | 11.3 | 0.00 | 0.00 | 0.00 | 76 | 1007.3 |
| 20260509000027 | 23 | 160 | 1.6 | 8.0 | 0.00 | 0.00 | 0.00 | 76 | 1007.1 |
| 20260508235528 | 23 | 159 | 3.2 | 12.9 | 0.00 | 0.00 | 0.00 | 76 | 1007.1 |
| 20260508235025 | 23 | 180 | 6.4 | 12.9 | 0.00 | 0.00 | 0.00 | 76 | 1007.1 |
| 20260508234552 | 23 | 171 | 8.0 | 14.5 | 0.00 | 0.00 | 0.00 | 75 | 1006.9 |
| 20260508234056 | 23 | 190 | 6.4 | 12.9 | 0.00 | 0.00 | 0.00 | 75 | 1006.9 |
| 20260508233552 | 23 | 175 | 4.8 | 12.9 | 0.00 | 0.00 | 0.00 | 75 | 1006.9 |
| 20260508233048 | 23 | 176 | 4.8 | 16.1 | 0.00 | 0.00 | 0.00 | 75 | 1007.0 |
| 20260508232546 | 23 | 197 | 6.4 | 17.7 | 0.00 | 0.00 | 0.00 | 75 | 1007.0 |
| 20260508232048 | 23 | 200 | 8.0 | 16.1 | 0.00 | 0.00 | 0.00 | 75 | 1007.1 |
| 20260508231541 | 23 | 149 | 6.4 | 17.7 | 0.00 | 0.00 | 0.00 | 75 | 1007.0 |
| 20260508231040 | 23 | 186 | 8.0 | 17.7 | 0.00 | 0.00 | 0.00 | 75 | 1007.1 |
| 20260508230541 | 23 | 193 | 11.3 | 19.3 | 0.00 | 0.00 | 0.00 | 75 | 1007.1 |
| 20260508230039 | 23 | 171 | 9.7 | 19.3 | 0.00 | 0.00 | 0.00 | 74 | 1007.3 |
| 20260508225637 | 23 | 184 | 11.3 | 19.3 | 0.00 | 0.00 | 0.00 | 74 | 1007.3 |
| 20260508225034 | 24 | 190 | 8.0 | 16.1 | 0.00 | 0.00 | 0.00 | 74 | 1007.4 |
| 20260508224545 | 23 | 169 | 8.0 | 17.7 | 0.00 | 0.00 | 0.00 | 74 | 1007.5 |
| 20260508224034 | 23 | 190 | 8.0 | 16.1 | 0.00 | 0.00 | 0.00 | 75 | 1007.4 |
| 20260508223534 | 23 | 186 | 9.7 | 19.3 | 0.00 | 0.00 | 0.00 | 75 | 1007.4 |
| 20260508223042 | 23 | 205 | 8.0 | 24.1 | 0.00 | 0.00 | 0.00 | 75 | 1007.4 |
| 20260508222529 | 23 | 197 | 8.0 | 24.1 | 0.00 | 0.00 | 0.00 | 75 | 1007.4 |
| 20260508222027 | 23 | 219 | 8.0 | 19.3 | 0.00 | 0.00 | 0.00 | 76 | 1007.3 |
| 20260508221523 | 23 | 193 | 9.7 | 17.7 | 0.00 | 0.00 | 0.00 | 75 | 1007.3 |
| 20260508221022 | 23 | 213 | 9.7 | 17.7 | 0.00 | 0.00 | 0.00 | 76 | 1007.4 |
| 20260508220520 | 22 | 197 | 6.4 | 17.7 | 0.00 | 0.00 | 0.00 | 77 | 1007.5 |
| 20260508220024 | 22 | 185 | 4.8 | 16.1 | 0.00 | 0.00 | 0.00 | 78 | 1007.6 |
| 20260508215518 | 22 | 172 | 9.7 | 16.1 | 0.00 | 0.00 | 0.00 | 78 | 1007.7 |
| 20260508215017 | 22 | 204 | 9.7 | 16.1 | 0.00 | 0.00 | 0.00 | 78 | 1007.9 |
| 20260508214523 | 22 | 192 | 8.0 | 16.1 | 0.00 | 0.00 | 0.00 | 78 | 1007.9 |
| 20260508214018 | 22 | 202 | 8.0 | 14.5 | 0.00 | 0.00 | 0.00 | 78 | 1008.0 |
| 20260508213514 | 21 | 169 | 9.7 | 14.5 | 0.00 | 0.00 | 0.00 | 78 | 1008.0 |
| 20260508213017 | 21 | 174 | 3.2 | 11.3 | 0.00 | 0.00 | 0.00 | 79 | 1008.2 |
| 20260508212513 | 21 | 131 | 4.8 | 11.3 | 0.00 | 0.00 | 0.00 | 79 | 1008.2 |
| 20260508212014 | 21 | 184 | 3.2 | 11.3 | 0.00 | 0.00 | 0.00 | 79 | 1008.2 |
| 20260508211508 | 21 | 148 | 3.2 | 6.4 | 0.00 | 0.00 | 0.00 | 80 | 1008.6 |
| 20260508211001 | 21 | 103 | 0.0 | 4.8 | 0.00 | 0.00 | 0.00 | 79 | 1009.0 |
| 20260508210602 | 21 | 47 | 0.0 | 4.8 | 0.00 | 0.00 | 0.00 | 79 | 1009.0 |
| 20260508210100 | 21 | 38 | 0.0 | 3.2 | 0.00 | 0.00 | 0.00 | 79 | 1009.2 |
| 20260508205559 | 21 | 317 | 0.0 | 4.8 | 0.00 | 0.00 | 0.00 | 79 | 1009.6 |
| 20260508205059 | 21 | 317 | 0.0 | 4.8 | 0.00 | 0.00 | 0.00 | 79 | 1009.7 |
| 20260508204559 | 21 | 231 | 0.0 | 3.2 | 0.00 | 0.00 | 0.00 | 78 | 1009.8 |
| 20260508204057 | 21 | 230 | 0.0 | 1.6 | 0.00 | 0.00 | 0.00 | 78 | 1009.7 |
| 20260508203559 | 21 | 230 | 0.0 | 1.6 | 0.00 | 0.00 | 0.00 | 78 | 1009.7 |
| 20260508202618 | 21 | 230 | 0.0 | 1.6 | 0.00 | 0.00 | 0.00 | 78 | 1009.8 |
| 20260508201552 | 21 | 232 | 0.0 | 8.0 | 0.00 | 0.00 | 0.00 | 77 | 1010.1 |
| 20260508201049 | 21 | 181 | 1.6 | 11.3 | 0.00 | 0.00 | 0.00 | 77 | 1010.0 |
| 20260508200549 | 21 | 214 | 4.8 | 11.3 | 0.00 | 0.00 | 0.00 | 77 | 1009.9 |
| 20260508200050 | 20 | 131 | 3.2 | 11.3 | 0.00 | 0.00 | 0.00 | 79 | 1009.9 |
| 20260508195549 | 20 | 169 | 0.0 | 8.0 | 0.00 | 0.00 | 0.00 | 79 | 1009.6 |
| 20260508195518 | 20 | 167 | 0.0 | 8.0 | 0.00 | 0.00 | 0.00 | 79 | 1009.6 |
| 20260508195047 | 20 | 190 | 3.2 | 9.7 | 0.00 | 0.00 | 0.00 | 79 | 1009.8 |
| 20260508194656 | 20 | 140 | 1.6 | 6.4 | 0.00 | 0.00 | 0.00 | 79 | 1009.8 |
| 20260508194030 | 20 | 221 | 3.2 | 8.0 | 0.00 | 0.00 | 0.00 | 79 | 1010.2 |
| 20260508193544 | 20 | 142 | 1.6 | 8.0 | 0.00 | 0.00 | 0.00 | 78 | 1010.0 |
| 20260508193018 | 20 | 209 | 3.2 | 11.3 | 0.00 | 0.00 | 0.00 | 77 | 1010.3 |
| 20260508192630 | 20 | 211 | 4.8 | 8.0 | 0.00 | 0.00 | 0.00 | 76 | 1010.3 |
| 20260508192018 | 20 | 187 | 1.6 | 8.0 | 0.00 | 0.00 | 0.00 | 77 | 1010.4 |
| 20260508191518 | 20 | 181 | 3.2 | 8.0 | 0.00 | 0.00 | 0.00 | 76 | 1010.4 |
| 20260508191509 | 20 | 204 | 4.8 | 8.0 | 0.00 | 0.00 | 0.00 | 76 | 1010.4 |
| 20260508190046 | 20 | 185 | 6.4 | 11.3 | 0.00 | 0.00 | 0.00 | 75 | 1010.7 |
| 20260508185511 | 20 | 154 | 3.2 | 9.7 | 0.00 | 0.00 | 0.00 | 76 | 1010.5 |
| 20260508185015 | 20 | 168 | 3.2 | 11.3 | 0.00 | 0.00 | 0.00 | 75 | 1010.5 |
| 20260508184518 | 20 | 213 | 6.4 | 11.3 | 0.00 | 0.00 | 0.00 | 75 | 1010.7 |
| 20260508184005 | 20 | 209 | 8.0 | 11.3 | 0.00 | 0.00 | 0.00 | 76 | 1010.8 |
| 20260508183502 | 20 | 188 | 6.4 | 16.1 | 0.00 | 0.00 | 0.00 | 75 | 1010.9 |
| 20260508183002 | 20 | 190 | 6.4 | 16.1 | 0.00 | 0.00 | 0.00 | 75 | 1011.0 |
| 20260508182501 | 20 | 207 | 8.0 | 14.5 | 0.00 | 0.00 | 0.00 | 74 | 1011.3 |
| 20260508182100 | 20 | 140 | 4.8 | 12.9 | 0.00 | 0.00 | 0.00 | 74 | 1011.3 |
| 20260508182000 | 20 | 169 | 4.8 | 12.9 | 0.00 | 0.00 | 0.00 | 74 | 1011.3 |
| 20260508181600 | 20 | 201 | 4.8 | 11.3 | 0.00 | 0.00 | 0.00 | 74 | 1011.3 |
| 20260508181104 | 20 | 182 | 4.8 | 14.5 | 0.00 | 0.00 | 0.00 | 73 | 1011.4 |
| 20260508180601 | 20 | 180 | 4.8 | 14.5 | 0.00 | 0.00 | 0.00 | 73 | 1011.3 |
| 20260508180114 | 20 | 132 | 4.8 | 8.0 | 0.00 | 0.00 | 0.00 | 73 | 1011.5 |
| 20260508180002 | 20 | 195 | 3.2 | 8.0 | 0.00 | 0.00 | 0.00 | 73 | 1011.5 |
| 20260508175501 | 20 | 130 | 3.2 | 9.7 | 0.00 | 0.00 | 0.00 | 73 | 1011.5 |
| 20260508175100 | 20 | 176 | 1.6 | 11.3 | 0.00 | 0.00 | 0.00 | 73 | 1011.5 |
| 20260508174614 | 20 | 154 | 1.6 | 14.5 | 0.00 | 0.00 | 0.00 | 72 | 1011.6 |
| 20260508173509 | 20 | 182 | 4.8 | 14.5 | 0.00 | 0.00 | 0.00 | 73 | 1011.3 |
| 20260508173013 | 20 | 87 | 6.4 | 14.5 | 0.00 | 0.00 | 0.00 | 75 | 1011.2 |
| 20260508172505 | 20 | 138 | 8.0 | 14.5 | 0.00 | 0.00 | 0.00 | 74 | 1011.5 |
| 20260508172008 | 20 | 111 | 3.2 | 11.3 | 0.00 | 0.00 | 0.00 | 75 | 1011.8 |
| 20260508171504 | 20 | 130 | 4.8 | 11.3 | 0.00 | 0.00 | 0.00 | 75 | 1011.9 |
| 20260508171003 | 19 | 126 | 3.2 | 12.9 | 0.00 | 0.00 | 0.00 | 75 | 1012.0 |
| 20260508170518 | 19 | 105 | 6.4 | 12.9 | 0.00 | 0.00 | 0.00 | 74 | 1012.0 |
| 20260508165556 | 19 | 96 | 8.0 | 14.5 | 0.00 | 0.00 | 0.00 | 75 | 1012.2 |
| 20260508165056 | 19 | 83 | 3.2 | 9.7 | 0.00 | 0.00 | 0.00 | 75 | 1012.3 |
| 20260508164559 | 19 | 109 | 1.6 | 11.3 | 0.00 | 0.00 | 0.00 | 76 | 1012.4 |
| 20260508163525 | 19 | 94 | 8.0 | 14.5 | 0.00 | 0.00 | 0.00 | 75 | 1012.5 |
| 20260508163030 | 19 | 111 | 9.7 | 14.5 | 0.00 | 0.00 | 0.00 | 75 | 1012.6 |
| 20260508162524 | 19 | 109 | 8.0 | 12.9 | 0.00 | 0.00 | 0.00 | 75 | 1012.6 |
| 20260508162045 | 18 | 53 | 3.2 | 12.9 | 0.00 | 0.00 | 0.00 | 76 | 1012.7 |
| 20260508161523 | 18 | 87 | 6.4 | 12.9 | 0.00 | 0.00 | 0.00 | 76 | 1012.7 |
| 20260508161020 | 18 | 92 | 3.2 | 12.9 | 0.00 | 0.00 | 0.00 | 77 | 1012.8 |
| 20260508160520 | 18 | 114 | 4.8 | 11.3 | 0.00 | 0.00 | 0.00 | 76 | 1012.9 |
| 20260508160019 | 18 | 101 | 4.8 | 12.9 | 0.00 | 0.00 | 0.00 | 78 | 1013.0 |
| 20260508155516 | 18 | 69 | 3.2 | 12.9 | 0.00 | 0.00 | 0.00 | 78 | 1012.9 |
| 20260508155016 | 18 | 89 | 4.8 | 12.9 | 0.00 | 0.00 | 0.00 | 77 | 1013.1 |
| 20260508154515 | 18 | 96 | 8.0 | 12.9 | 0.00 | 0.00 | 0.00 | 78 | 1013.1 |
| 20260508154014 | 18 | 92 | 4.8 | 11.3 | 0.00 | 0.00 | 0.00 | 79 | 1013.1 |
| 20260508153513 | 17 | 86 | 3.2 | 9.7 | 0.00 | 0.00 | 0.00 | 79 | 1013.1 |
| 20260508153026 | 17 | 83 | 1.6 | 6.4 | 0.00 | 0.00 | 0.00 | 79 | 1013.1 |
| 20260508152516 | 17 | 90 | 1.6 | 9.7 | 0.00 | 0.00 | 0.00 | 79 | 1013.2 |
| 20260508152013 | 17 | 91 | 3.2 | 9.7 | 0.00 | 0.00 | 0.00 | 79 | 1013.2 |
| 20260508151511 | 17 | 99 | 0.0 | 6.4 | 0.00 | 0.00 | 0.00 | 80 | 1013.2 |
| 20260508150538 | 17 | 100 | 3.2 | 9.7 | 0.00 | 0.00 | 0.00 | 80 | 1013.3 |
| 20260508150038 | 17 | 103 | 1.6 | 11.3 | 0.00 | 0.00 | 0.00 | 80 | 1013.2 |
| 20260508145537 | 17 | 92 | 3.2 | 9.7 | 0.00 | 0.00 | 0.00 | 80 | 1013.2 |
| 20260508145036 | 17 | 98 | 3.2 | 9.7 | 0.00 | 0.00 | 0.00 | 81 | 1013.2 |
| 20260508144538 | 17 | 117 | 1.6 | 9.7 | 0.00 | 0.00 | 0.00 | 81 | 1013.2 |
| 20260508144034 | 17 | 58 | 0.0 | 6.4 | 0.00 | 0.00 | 0.00 | 82 | 1013.2 |
| 20260508143531 | 16 | 57 | 1.6 | 4.8 | 0.00 | 0.00 | 0.00 | 83 | 1013.2 |
| 20260508143029 | 16 | 41 | 1.6 | 6.4 | 0.00 | 0.00 | 0.00 | 83 | 1013.3 |
| 20260508142529 | 16 | 43 | 3.2 | 6.4 | 0.00 | 0.00 | 0.00 | 84 | 1013.2 |
| 20260508142029 | 16 | 87 | 3.2 | 6.4 | 0.00 | 0.00 | 0.00 | 84 | 1013.2 |
| 20260508141527 | 16 | 87 | 1.6 | 6.4 | 0.00 | 0.00 | 0.00 | 84 | 1013.3 |
| 20260508141026 | 16 | 74 | 1.6 | 4.8 | 0.00 | 0.00 | 0.00 | 85 | 1013.3 |
| 20260508140524 | 16 | 75 | 0.0 | 8.0 | 0.00 | 0.00 | 0.00 | 85 | 1013.4 |
| 20260508140026 | 16 | 72 | 1.6 | 8.0 | 0.00 | 0.00 | 0.00 | 85 | 1013.4 |
| 20260508135527 | 16 | 62 | 3.2 | 8.0 | 0.00 | 0.00 | 0.00 | 85 | 1013.3 |